Location: B?jaj?g
(11.7167°N, 92.6667°E)
Time: 22:33:10
(UTC+00:00)

Cosmos 1934 Rocket - Pass Details

Date: 18 September 2020
Orbit: 937 x 1000 km, 83.0° (Epoch: 20 October)

Event Time Altitude Azimuth Distance (km) Brightness Sun altitude
Rises 21:58:02 0° 348° (NNW) 3,590 6.9 -25.4°
Reaches altitude 10° 22:00:33 10° 343° (NNW) 2,650 6.2 -24.8°
Maximum altitude 22:06:24 53° 268° (W) 1,147 3.9 -23.3°
Drops below altitude 10° 22:12:20 10° 192° (SSW) 2,681 6.1 -21.9°
Sets 22:14:54 0° 188° (S) 3,636 6.9 -21.3°
